This is the latest recevied weather packets stored in our database for station/object N8ESC. If no packets are shown the sender has not sent any weather packets the latest 10 day(s).
| Time | Temp. | Humidity | Pressure | Rain* | Wind** | Luminosity | Snow |
|---|---|---|---|---|---|---|---|
| 1778073100 | 3.89° C | 57% | 1011.5 hPa | 0 mm | - | 165 W/m² | - |
| 1778072796 | 3.89° C | 58% | 1011.4 hPa | 0 mm | - | 154 W/m² | - |
| 1778072494 | 3.89° C | 58% | 1011.4 hPa | 0 mm | - | 159 W/m² | - |
| 1778072192 | 3.33° C | 58% | 1011.5 hPa | 0 mm | - | 134 W/m² | - |
| 1778071889 | 3.33° C | 59% | 1011.2 hPa | 0 mm | - | 128 W/m² | - |
| 1778071587 | 3.33° C | 59% | 1011.2 hPa | 0 mm | - | 122 W/m² | - |
| 1778071285 | 3.33° C | 59% | 1011.1 hPa | 0 mm | - | 117 W/m² | - |
| 1778070982 | 3.33° C | 60% | 1011 hPa | 0 mm | - | 107 W/m² | - |
| 1778070681 | 3.33° C | 62% | 1011 hPa | 0 mm | - | 97 W/m² | - |
| 1778070377 | 2.78° C | 63% | 1011.3 hPa | 0 mm | - | 97 W/m² | - |
| 1778070075 | 2.78° C | 64% | 1011.2 hPa | 0 mm | - | 98 W/m² | - |
| 1778069772 | 2.78° C | 65% | 1011.3 hPa | 0 mm | - | 106 W/m² | - |
| 1778069468 | 2.78° C | 65% | 1011.3 hPa | 0 mm | - | 88 W/m² | - |
| 1778069167 | 2.78° C | 64% | 1010.9 hPa | 0 mm | - | 77 W/m² | - |
| 1778068863 | 2.78° C | 65% | 1011 hPa | 0 mm | - | 75 W/m² | - |
| 1778068562 | 2.22° C | 64% | 1010.9 hPa | 0 mm | - | 60 W/m² | - |
| 1778068260 | 2.22° C | 65% | 1010.8 hPa | 0 mm | - | 69 W/m² | - |
| 1778067957 | 2.22° C | 66% | 1010.8 hPa | 0 mm | - | 56 W/m² | - |
| 1778067655 | 2.22° C | 67% | 1010.8 hPa | 0 mm | - | 53 W/m² | - |
| 1778067353 | 1.67° C | 68% | 1010.6 hPa | 0 mm | - | 50 W/m² | - |
| 1778067050 | 1.67° C | 68% | 1010.5 hPa | 0 mm | - | 46 W/m² | - |
| 1778066746 | 1.67° C | 68% | 1010.4 hPa | 0 mm | - | 39 W/m² | - |
| 1778066443 | 1.67° C | 68% | 1010.4 hPa | 0 mm | - | 32 W/m² | - |
| 1778066141 | 1.67° C | 68% | 1010.4 hPa | 0 mm | - | 33 W/m² | - |
| 1778065838 | 1.67° C | 67% | 1010.3 hPa | 0 mm | - | 28 W/m² | - |
* Rain latest hour (hover to see other rain measurements)
** Current wind speed in m/s (hover to see current wind gust speed)